Fort Worth Alliance, TX

2:27 PM CST on February 24, 2018 (GMT -0600)
Fort Worth Alliance

Weather History for KAFW - December, 2012

Change the Weather History Date:

Monday, December 24, 2012

  Actual Average Record
Temperature  
Mean Temperature 38 °F -  
Max Temperature 48 °F 53 °F 75 °F (2016)
Min Temperature 28 °F 31 °F 19 °F (2004)
Degree Days  
Heating Degree Days 27    
Moisture  
Dew Point 25 °F    
Average Humidity 56    
Maximum Humidity 81    
Minimum Humidity 36    
Precipitation  
Precipitation 0.00 in - - ()
Sea Level Pressure  
Sea Level Pressure 29.94 in    
Wind  
Wind Speed 4 mph (NNE)    
Max Wind Speed 8 mph    
Max Gust Speed -    
Visibility 8 miles    
Events      
Averages and records for this station are not official NWS values.
T = Trace of Precipitation, MM = Missing Value Source: NWS Daily Summary

Daily Weather History Graph

Daily Weather History Graph

Search for Another Location

Airport or City:

Trip Planner

Search our weather history database for the weather conditions in past years. The results will help you decide how hot, cold, wet, or windy it might be!

Date:

Astronomy

Dec. 24, 2012 Rise Set
Actual Time 7:29 AM CST 5:28 PM CST
Civil Twilight 7:02 AM CST 5:55 PM CST
Nautical Twilight 6:31 AM CST 6:26 PM CST
Astronomical Twilight 6:01 AM CST 6:57 PM CST
Moon 2:53 PM CST 4:13 AM CST
Length of Visible Light 10h 53m
Length of Day
9h 58m
Waxing Gibbous, 88% of the Moon is Illuminated
Dec 24
Waxing Gibbous
Dec 28
Full
Jan 4
Last Quarter
Jan 11
New
Jan 18
First Quarter

Hourly Weather History & Observations

Time (CST) Temp. Windchill Dew Point Humidity Pressure Visibility Wind Dir Wind Speed Gust Speed Precip Events Conditions
12:53 AM 37.9 °F 35.5 °F 26.1 °F 62% 29.95 in 10.0 mi North 3.5 mph - N/A   Clear
1:53 AM 35.1 °F 32.2 °F 26.1 °F 70% 29.96 in 10.0 mi NW 3.5 mph - N/A   Clear
2:53 AM 35.1 °F 32.2 °F 25.0 °F 67% 29.97 in 10.0 mi NNW 3.5 mph - N/A   Clear
3:53 AM 33.1 °F 30.0 °F 24.1 °F 70% 29.97 in 10.0 mi NNW 3.5 mph - N/A   Clear
4:53 AM 32.0 °F 28.7 °F 24.1 °F 73% 29.99 in 9.0 mi NW 3.5 mph - N/A   Clear
6:53 AM 28.0 °F 22.8 °F 23.0 °F 81% 30.04 in 7.0 mi North 4.6 mph - N/A   Clear
7:53 AM 28.0 °F - 21.9 °F 78% 30.06 in 5.0 mi Calm Calm - N/A   Haze
8:53 AM 32.0 °F 24.8 °F 23.0 °F 69% 30.06 in 5.0 mi NNW 8.1 mph - N/A   Haze
9:53 AM 35.1 °F 28.6 °F 23.0 °F 61% 30.07 in 5.0 mi North 8.1 mph - N/A   Haze
10:53 AM 39.0 °F 35.7 °F 24.1 °F 55% 30.06 in 5.0 mi NNE 4.6 mph - N/A   Haze
11:53 AM 43.0 °F 40.3 °F 24.1 °F 47% 30.03 in 5.0 mi Variable 4.6 mph - N/A   Haze
12:53 PM 45.0 °F 43.5 °F 24.1 °F 44% 29.97 in 5.0 mi North 3.5 mph - N/A   Haze
1:53 PM 48.0 °F - 24.1 °F 39% 29.91 in 5.0 mi East 4.6 mph - N/A   Haze
2:53 PM 48.0 °F - 24.1 °F 39% 29.91 in 5.0 mi Calm Calm - N/A   Haze
3:53 PM 48.9 °F - 23.0 °F 36% 29.90 in 7.0 mi Calm Calm - N/A   Clear
4:53 PM 48.0 °F - 24.1 °F 39% 29.89 in 7.0 mi NNE 5.8 mph - N/A   Clear
5:53 PM 46.0 °F 43.1 °F 24.1 °F 42% 29.88 in 8.0 mi NE 5.8 mph - N/A   Clear
6:53 PM 44.1 °F 42.5 °F 24.1 °F 45% 29.87 in 9.0 mi ENE 3.5 mph - N/A   Clear
7:53 PM 43.0 °F - 25.0 °F 49% 29.87 in 9.0 mi Calm Calm - N/A   Clear
8:53 PM 43.0 °F 41.3 °F 26.1 °F 51% 29.85 in 9.0 mi NE 3.5 mph - N/A   Scattered Clouds
9:53 PM 41.0 °F 39.0 °F 27.0 °F 57% 29.85 in 9.0 mi ENE 3.5 mph - N/A   Mostly Cloudy
10:53 PM 42.1 °F 39.2 °F 28.0 °F 58% 29.83 in 9.0 mi NNE 4.6 mph - N/A   Mostly Cloudy
11:53 PM 42.1 °F 39.2 °F 28.9 °F 60% 29.81 in 9.0 mi NE 4.6 mph - N/A   Scattered Clouds